Flag for Russia Weather past 2 weeks in Kazan, Russia

Now
63 °F

Thundershowers. Partly sunny.


Feels Like: 63 °F
Forecast: 56 / 71 °F
Wind: 13 mph from Northwest

Location: Kazan'

Current Time: Aug 1, 2015 at 7:26:09 PM

Latest Report: Aug 1, 2015 at 7:00 PM


Visibility: 2 mi

Pressure: 29.71 "Hg

Humidity: 94%

Dew point: 61 °F

Location of KazanLocation

Historic Weather in Kazan — Graph

°F

Kazan temperature yesterday

Maximum temperature yesterday: 73 °F (at 4:30 PM)
Minimum temperature yesterday: 59 °F (at 1:00 AM)
Average temperature yesterday: 65 °F

Past Weeks' High & Low Weather Summary

 TemperatureHumidityPressure
High82 °F (Jul 29, 1:00 PM)100% (Jul 24, 1:30 AM)29.95 "Hg (Jul 24, 1:30 AM)
Low50 °F (Jul 19, 3:30 AM)35% (Jul 19, 4:00 PM)29.42 "Hg (Jul 21, 7:30 AM)
Average66 °F70%29.79 "Hg
* Reported Jul 17 6:00 PM — Aug 1 6:00 PM, Kazan, Weather by CustomWeather, © 2015

Note: Actual official high and low records may vary slightly from our data, if they occured in-between our weather recording intervals... More about our weather records

Advertising

Kazan weather history for previous 24 hours

 ConditionsComfort  
Time TempWeatherWind HumidityBarometerVisibility
6:00 PM
Sat, Aug 1
66 °FThundershowers. Partly sunny.8 mph94%29.71 "Hg3 mi
5:30 PM68 °FSprinkles. Partly sunny.6 mph83%29.71 "HgN/A
5:00 PM68 °FPartly sunny.8 mph83%29.71 "HgN/A
4:30 PM70 °FPartly sunny.6 mph78%29.74 "HgN/A
4:00 PM70 °FPartly sunny.8 mph78%29.77 "HgN/A
3:30 PM70 °FScattered clouds.8 mph78%29.83 "HgN/A
3:00 PM70 °FScattered clouds.6 mph78%29.86 "HgN/A
2:30 PM70 °FScattered clouds.3 mph78%29.86 "HgN/A
2:00 PM70 °FPartly sunny.3 mph78%29.86 "HgN/A
1:30 PM70 °FPartly sunny.6 mph78%29.89 "HgN/A
1:00 PM70 °FPartly sunny.3 mph78%29.92 "HgN/A
12:30 PM70 °FSprinkles. Partly sunny.6 mph78%29.92 "HgN/A
12:00 PM72 °FSprinkles. Partly sunny.8 mph73%29.92 "HgN/A
11:30 AM72 °FSprinkles. Partly sunny.10 mph69%29.92 "HgN/A
11:00 AM72 °FPartly sunny.8 mph61%29.92 "HgN/A
10:30 AM73 °FPartly sunny.8 mph61%29.92 "HgN/A
10:00 AM72 °FSunny.8 mph65%29.92 "Hg10 mi
9:30 AM72 °FPassing clouds.6 mph65%29.92 "HgN/A
9:00 AM72 °FSunny.6 mph61%29.92 "Hg10 mi
8:30 AM72 °FPassing clouds.3 mph57%29.95 "HgN/A
7:30 AM70 °FSunny.3 mph69%29.95 "Hg10 mi
7:00 AM66 °FSunny.1 mph78%29.92 "Hg10 mi
6:30 AM64 °FSunny.1 mph83%29.95 "Hg10 mi
6:00 AM64 °FSunny.1 mph83%29.92 "Hg10 mi
5:30 AM63 °FSunny.1 mph88%29.92 "Hg10 mi
5:00 AM63 °FSunny.1 mph83%29.92 "Hg10 mi
4:30 AM59 °FClear.1 mph94%29.92 "Hg10 mi
4:00 AM59 °FClear.1 mph88%29.92 "Hg10 mi
3:30 AM59 °FClear.No wind94%29.92 "Hg10 mi
3:00 AM59 °FClear.1 mph94%29.89 "Hg10 mi
2:30 AM59 °FClear.No wind88%29.89 "Hg10 mi
2:00 AM59 °FClear.1 mph94%29.89 "Hg10 mi
1:30 AM61 °FClear.1 mph88%29.89 "Hg10 mi
12:30 AM63 °FClear.1 mph83%29.86 "Hg10 mi
12:00 AM63 °FClear.3 mph88%29.86 "Hg10 mi
11:30 PM
Fri, Jul 31
63 °FClear.1 mph88%29.86 "Hg10 mi
11:00 PM64 °FClear.3 mph83%29.86 "Hg10 mi
10:30 PM64 °FClear.6 mph83%29.86 "Hg10 mi
10:00 PM64 °FClear.8 mph83%29.86 "Hg10 mi
9:30 PM66 °FClear.6 mph83%29.83 "Hg10 mi
9:00 PM66 °FClear.6 mph83%29.83 "Hg10 mi
8:30 PM68 °FSunny.6 mph78%29.83 "Hg10 mi
8:00 PM68 °FScattered clouds.6 mph78%29.83 "HgN/A
7:30 PM70 °FScattered clouds.3 mph78%29.80 "HgN/A
7:00 PM72 °FScattered clouds.3 mph73%29.80 "HgN/A
Weather by CustomWeather, © 2015

See weather overviewHow to use our weather pages